This is the latest recevied weather packets stored in our database for station/object G4KVI. If no packets are shown the sender has not sent any weather packets the latest 10 day(s).
| Time | Temp. | Humidity | Pressure | Rain* | Wind** | Luminosity | Snow |
|---|---|---|---|---|---|---|---|
| 1777228504 | 16.11° C | 39% | 1025.5 hPa | 0 mm | - | 33 W/m² | - |
| 1777228204 | 16.67° C | 38% | 1025.3 hPa | 0 mm | - | 37 W/m² | - |
| 1777227904 | 17.22° C | 37% | 1025.4 hPa | 0 mm | - | 42 W/m² | - |
| 1777227604 | 17.22° C | 36% | 1025.3 hPa | 0 mm | - | 51 W/m² | - |
| 1777227304 | 17.78° C | 36% | 1025.5 hPa | 0 mm | - | 60 W/m² | - |
| 1777227004 | 17.22° C | 36% | 1025.6 hPa | 0 mm | - | 72 W/m² | - |
| 1777226704 | 17.78° C | 36% | 1025.6 hPa | 0 mm | - | 79 W/m² | - |
| 1777226404 | 17.78° C | 34% | 1025.5 hPa | 0 mm | - | 88 W/m² | - |
| 1777226104 | 17.78° C | 35% | 1025.4 hPa | 0 mm | - | 99 W/m² | - |
| 1777225804 | 17.78° C | 35% | 1025.2 hPa | 0 mm | - | 113 W/m² | - |
| 1777225504 | 17.78° C | 36% | 1025.4 hPa | 0 mm | - | 115 W/m² | - |
| 1777225204 | 17.22° C | 35% | 1025.5 hPa | 0 mm | - | 130 W/m² | - |
| 1777224904 | 17.22° C | 36% | 1025.5 hPa | 0 mm | - | 101 W/m² | - |
| 1777224604 | 17.22° C | 35% | 1025.4 hPa | 0 mm | - | 102 W/m² | - |
| 1777224304 | 17.22° C | 36% | 1025.6 hPa | 0 mm | - | 104 W/m² | - |
| 1777224004 | 17.22° C | 36% | 1025.6 hPa | 0 mm | - | 108 W/m² | - |
| 1777223704 | 17.22° C | 35% | 1025.5 hPa | 0 mm | - | 110 W/m² | - |
| 1777223404 | 17.22° C | 34% | 1025.4 hPa | 0 mm | - | 107 W/m² | - |
| 1777223104 | 17.22° C | 34% | 1025.4 hPa | 0 mm | - | 101 W/m² | - |
| 1777222804 | 17.22° C | 35% | 1025.5 hPa | 0 mm | - | 103 W/m² | - |
| 1777222504 | 17.78° C | 34% | 1025.6 hPa | 0 mm | - | 110 W/m² | - |
| 1777222204 | 17.78° C | 35% | 1025.6 hPa | 0 mm | - | 110 W/m² | - |
| 1777221904 | 17.78° C | 35% | 1025.6 hPa | 0 mm | - | 105 W/m² | - |
| 1777221604 | 17.78° C | 34% | 1025.4 hPa | 0 mm | - | 103 W/m² | - |
| 1777221304 | 17.78° C | 33% | 1025.4 hPa | 0 mm | - | 106 W/m² | - |
* Rain latest hour (hover to see other rain measurements)
** Current wind speed in m/s (hover to see current wind gust speed)